Tillbaka till svenska Fidonet
English   Information   Debug  
FILM   0/18
FNEWS_PUBLISH   4926
FN_SYSOP   42201
FN_SYSOP_OLD1   71952
FTP_FIDO   0/2
FTSC_PUBLIC   0/13973
FUNNY   0/4886
GENEALOGY.EUR   0/71
GET_INFO   105
GOLDED   0/408
HAM   5897/16660
HOLYSMOKE   0/6791
HOT_SITES   0/1
HTMLEDIT   0/71
HUB203   466
HUB_100   264
HUB_400   39
HUMOR   0/29
IC   0/2851
INTERNET   0/424
INTERUSER   0/3
IP_CONNECT   719
JAMNNTPD   0/233
JAMTLAND   0/47
KATTY_KORNER   0/41
LAN   0/16
LINUX-USER   0/19
LINUXHELP   0/1155
LINUX   0/22300
LINUX_BBS   0/957
mail   18.68
mail_fore_ok   249
MENSA   0/341
MODERATOR   0/102
MONTE   0/992
MOSCOW_OKLAHOMA   0/1245
MUFFIN   0/783
MUSIC   0/321
N203_STAT   938
N203_SYSCHAT   313
NET203   321
NET204   69
NET_DEV   0/10
NORD.ADMIN   0/101
NORD.CHAT   0/2572
NORD.FIDONET   189
NORD.HARDWARE   0/28
NORD.KULTUR   0/114
NORD.PROG   0/32
NORD.SOFTWARE   0/88
NORD.TEKNIK   0/58
NORD   0/453
OCCULT_CHAT   0/93
OS2BBS   0/787
OS2DOSBBS   0/580
OS2HW   0/42
OS2INET   0/37
OS2LAN   0/134
OS2PROG   0/36
OS2REXX   0/113
OS2USER-L   207
OS2   0/4830
OSDEBATE   0/18996
PASCAL   0/490
PERL   0/457
PHP   0/45
POINTS   0/405
POLITICS   0/29554
POL_INC   0/14731
PSION   103
R20_ADMIN   1133
R20_AMATORRADIO   0/2
R20_BEST_OF_FIDONET   16
R20_CHAT   0/896
R20_DEPP   0/3
R20_DEV   400
R20_ECHO2   1831
R20_ECHOPRES   0/35
R20_ESTAT   0/719
R20_FIDONETPROG...
...RAM.MYPOINT
  0/2
R20_FIDONETPROGRAM   0/22
R20_FIDONET   0/248
R20_FILEFIND   0/24
R20_FILEFOUND   0/22
R20_HIFI   0/3
R20_INFO2   3723
R20_INTERNET   0/12940
R20_INTRESSE   0/60
R20_INTR_KOM   0/99
R20_KANDIDAT.CHAT   42
R20_KANDIDAT   28
R20_KOM_DEV   112
R20_KONTROLL   0/13360
R20_KORSET   0/18
R20_LOKALTRAFIK   0/24
R20_MODERATOR   0/1852
R20_NC   76
R20_NET200   245
R20_NETWORK.OTH...
...ERNETS
  0/13
R20_OPERATIVSYS...
...TEM.LINUX
  0/44
R20_PROGRAMVAROR   0/1
R20_REC2NEC   534
R20_SFOSM   0/341
R20_SF   0/108
R20_SPRAK.ENGLISH   0/1
R20_SQUISH   107
R20_TEST   2
R20_WORST_OF_FIDONET   20
RAR   0/9
RA_MULTI   106
RA_UTIL   0/162
REGCON.EUR   0/2068
REGCON   0/13
SCIENCE   0/1206
SF   0/239
SHAREWARE_SUPPORT   0/5146
SHAREWRE   0/14
SIMPSONS   0/169
STATS_OLD1   0/2539.065
STATS_OLD2   0/2530
STATS_OLD3   0/2395.095
STATS_OLD4   0/1692.25
SURVIVOR   0/495
SYSOPS_CORNER   0/3
SYSOP   0/84
TAGLINES   0/112
TEAMOS2   0/4530
TECH   0/2617
TEST.444   0/105
TRAPDOOR   0/19
TREK   0/755
TUB   0/290
UFO   0/40
UNIX   0/1316
USA_EURLINK   0/102
USR_MODEMS   0/1
VATICAN   0/2740
VIETNAM_VETS   0/14
VIRUS   0/378
VIRUS_INFO   0/201
VISUAL_BASIC   0/473
WHITEHOUSE   0/5187
WIN2000   0/101
WIN32   0/30
WIN95   0/4291
WIN95_OLD1   0/70272
WINDOWS   0/1517
WWB_SYSOP   0/419
WWB_TECH   0/810
ZCC-PUBLIC   0/1
ZEC   4

 
4DOS   0/134
ABORTION   0/7
ALASKA_CHAT   0/506
ALLFIX_FILE   0/1313
ALLFIX_FILE_OLD1   0/7997
ALT_DOS   0/152
AMATEUR_RADIO   0/1039
AMIGASALE   0/14
AMIGA   0/331
AMIGA_INT   0/1
AMIGA_PROG   0/20
AMIGA_SYSOP   0/26
ANIME   0/15
ARGUS   0/924
ASCII_ART   0/340
ASIAN_LINK   0/651
ASTRONOMY   0/417
AUDIO   0/92
AUTOMOBILE_RACING   0/105
BABYLON5   0/17862
BAG   135
BATPOWER   0/361
BBBS.ENGLISH   0/382
BBSLAW   0/109
BBS_ADS   0/5290
BBS_INTERNET   0/507
BIBLE   0/3563
BINKD   0/1119
BINKLEY   0/215
BLUEWAVE   0/2173
CABLE_MODEMS   0/25
CBM   0/46
CDRECORD   0/66
CDROM   0/20
CLASSIC_COMPUTER   0/378
COMICS   0/15
CONSPRCY   0/899
COOKING   41444
COOKING_OLD1   0/24719
COOKING_OLD2   0/40862
COOKING_OLD3   0/37489
COOKING_OLD4   0/35496
COOKING_OLD5   9370
C_ECHO   0/189
C_PLUSPLUS   0/31
DIRTY_DOZEN   0/201
DOORGAMES   0/2285
DOS_INTERNET   0/196
duplikat   6102
ECHOLIST   0/18295
EC_SUPPORT   0/318
ELECTRONICS   0/359
ELEKTRONIK.GER   1534
ENET.LINGUISTIC   0/13
ENET.POLITICS   0/4
ENET.SOFT   0/11701
ENET.SYSOP   34296
ENET.TALKS   0/32
ENGLISH_TUTOR   0/2000
EVOLUTION   0/1335
FDECHO   0/217
FDN_ANNOUNCE   0/7068
FIDONEWS   25062
FIDONEWS_OLD1   0/49742
FIDONEWS_OLD2   0/35949
FIDONEWS_OLD3   0/30874
FIDONEWS_OLD4   0/37224
FIDO_SYSOP   12922
FIDO_UTIL   0/180
FILEFIND   0/209
FILEGATE   0/212
Möte HAM, 16660 texter
 lista första sista föregående nästa
Text 4055, 877 rader
Skriven 2010-10-06 23:30:27 av Amsat List (1:323/120.0)
Ärende: [keps]  orb10280.amsa
=============================
[keps]  orb10280.amsa

Return-Path: <keps-bounces@amsat.org>
X-Rcpt: craig.healy@chowda.com
X-UIDL: 1286508211.59934

SB KEPS @ AMSAT  $ORB10280.O
Orbital Elements  10280.OSCAR

HR AMSAT ORBITAL ELEMENTS FOR OSCAR SATELLITES
FROM WA5QGD FORT WORTH,TX October 7, 2010
BID: ORB10280.O
TO ALL RADIO AMATEURS BT

Satellite: AO-07
Catalog number: 07530
Epoch time:      10280.88907382
Element set:     896
Inclination:      101.4006 deg
RA of node:       292.3775 deg
Eccentricity:    0.0012233
Arg of perigee:   052.8416 deg
Mean anomaly:     307.3772 deg
Mean motion:   12.53579688 rev/day
Decay rate:       -2.7e-07 rev/day^2
Epoch rev:           64257
Checksum:              313

Satellite: FO-29
Catalog number: 24278
Epoch time:      10279.91936900
Element set:    0441
Inclination:      098.5172 deg
RA of node:       093.6288 deg
Eccentricity:    0.0350488
Arg of perigee:   193.8736 deg
Mean anomaly:     165.2598 deg
Mean motion:   13.52954027 rev/day
Decay rate:        9.9e-07 rev/day^2
Epoch rev:           69821
Checksum:              361

Satellite: SO-33
Catalog number: 25509
Epoch time:      10279.24994438
Element set:    0809
Inclination:      031.4325 deg
RA of node:       240.4557 deg
Eccentricity:    0.0354035
Arg of perigee:   181.0691 deg
Mean anomaly:     178.9144 deg
Mean motion:   14.28332937 rev/day
Decay rate:       1.33e-06 rev/day^2
Epoch rev:           62394
Checksum:              314

Satellite: RS-22
Catalog number: 27939
Epoch time:      10280.66600279
Element set:     610
Inclination:      097.8745 deg
RA of node:       141.2821 deg
Eccentricity:    0.0014637
Arg of perigee:   066.1119 deg
Mean anomaly:     294.1635 deg
Mean motion:   14.63459569 rev/day
Decay rate:        9.4e-07 rev/day^2
Epoch rev:           37540
Checksum:              317

Satellite: VO-52
Catalog number: 28650
Epoch time:      10279.55359253
Element set:    0616
Inclination:      097.6807 deg
RA of node:       328.5698 deg
Eccentricity:    0.0025820
Arg of perigee:   272.4978 deg
Mean anomaly:     087.3285 deg
Mean motion:   14.81816809 rev/day
Decay rate:      -2.16e-06 rev/day^2
Epoch rev:           29318
Checksum:              353

Satellite: SO-67
Catalog number: 35870
Epoch time:      10280.74906446
Element set:     172
Inclination:      097.3200 deg
RA of node:       326.8348 deg
Eccentricity:    0.0004629
Arg of perigee:   070.8632 deg
Mean anomaly:     039.5840 deg
Mean motion:   15.21090764 rev/day
Decay rate:       6.36e-06 rev/day^2
Epoch rev:            5856
Checksum:              312

Satellite: HO-68
Catalog number: 36122
Epoch time:      10280.74017231
Element set:     735
Inclination:      100.4563 deg
RA of node:       339.9646 deg
Eccentricity:    0.0007850
Arg of perigee:   081.0027 deg
Mean anomaly:     279.1975 deg
Mean motion:   13.16282043 rev/day
Decay rate:       -4.5e-07 rev/day^2
Epoch rev:            3902
Checksum:              281

/EX
SB KEPS @ AMSAT  $ORB10280.D
Orbital Elements  10280.MICROS

HR AMSAT ORBITAL ELEMENTS FOR THE MICROSATS
FROM WA5QGD FORT WORTH,TX October 7, 2010
BID: ORB10280.D
TO ALL RADIO AMATEURS BT

Satellite: UO-11
Catalog number: 14781
Epoch time:      10280.73917600
Element set:     358
Inclination:      098.0430 deg
RA of node:       332.7420 deg
Eccentricity:    0.0008161
Arg of perigee:   232.0187 deg
Mean anomaly:     128.0259 deg
Mean motion:   14.79841792 rev/day
Decay rate:       1.51e-06 rev/day^2
Epoch rev:           42845
Checksum:              286

Satellite: AO-16
Catalog number: 20439
Epoch time:      10280.76396176
Element set:      12
Inclination:      098.3458 deg
RA of node:       234.3145 deg
Eccentricity:    0.0010535
Arg of perigee:   187.6410 deg
Mean anomaly:     172.4614 deg
Mean motion:   14.31877106 rev/day
Decay rate:        3.8e-07 rev/day^2
Epoch rev:            8149
Checksum:              291

Satellite: LO-19
Catalog number: 20442
Epoch time:      10279.76551588
Element set:    0921
Inclination:      098.3084 deg
RA of node:       238.7089 deg
Eccentricity:    0.0011918
Arg of perigee:   184.9906 deg
Mean anomaly:     175.1161 deg
Mean motion:   14.32106221 rev/day
Decay rate:       -9.0e-08 rev/day^2
Epoch rev:           08152
Checksum:              306

Satellite: AO-27
Catalog number: 22825
Epoch time:      10279.73971884
Element set:    0645
Inclination:      098.4961 deg
RA of node:       224.8612 deg
Eccentricity:    0.0007851
Arg of perigee:   306.1736 deg
Mean anomaly:     053.8722 deg
Mean motion:   14.29310355 rev/day
Decay rate:        1.7e-07 rev/day^2
Epoch rev:           88798
Checksum:              337

Satellite: IO-26
Catalog number: 22826
Epoch time:      10280.83502685
Element set:     382
Inclination:      098.4910 deg
RA of node:       226.4902 deg
Eccentricity:    0.0008177
Arg of perigee:   296.4816 deg
Mean anomaly:     063.5533 deg
Mean motion:   14.29568386 rev/day
Decay rate:        4.6e-07 rev/day^2
Epoch rev:           88825
Checksum:              333

Satellite: GO-32
Catalog number: 25397
Epoch time:      10279.67531697
Element set:    0301
Inclination:      098.3172 deg
RA of node:       281.0056 deg
Eccentricity:    0.0000661
Arg of perigee:   355.1919 deg
Mean anomaly:     004.9245 deg
Mean motion:   14.23186524 rev/day
Decay rate:        7.0e-07 rev/day^2
Epoch rev:           63590
Checksum:              297

Satellite: NO-44
Catalog number: 26931
Epoch time:      10280.49014854
Element set:     576
Inclination:      067.0521 deg
RA of node:       274.6292 deg
Eccentricity:    0.0005545
Arg of perigee:   273.8661 deg
Mean anomaly:     086.1799 deg
Mean motion:   14.29615399 rev/day
Decay rate:       3.09e-06 rev/day^2
Epoch rev:           47080
Checksum:              328

